This is the latest recevied weather packets stored in our database for station/object KE0FIN. If no packets are shown the sender has not sent any weather packets the latest 10 day(s).
| Time | Temp. | Humidity | Pressure | Rain* | Wind** | Luminosity | Snow |
|---|---|---|---|---|---|---|---|
| 1777947195 | 23.89° C | 56% | 1053.6 hPa | 0 mm | - | 0 W/m² | - |
| 1777946890 | 23.89° C | 55% | 1053.1 hPa | 0 mm | - | 0 W/m² | - |
| 1777946586 | 23.89° C | 55% | 1053.2 hPa | 0 mm | - | 0 W/m² | - |
| 1777946283 | 23.89° C | 55% | 1053.2 hPa | 0 mm | - | 0 W/m² | - |
| 1777945980 | 23.89° C | 55% | 1053.3 hPa | 0 mm | - | 0 W/m² | - |
| 1777945678 | 23.89° C | 54% | 1053.1 hPa | 0 mm | - | 0 W/m² | - |
| 1777945375 | 24.44° C | 54% | 1052.9 hPa | 0 mm | - | 0 W/m² | - |
| 1777945071 | 24.44° C | 53% | 1052.8 hPa | 0 mm | - | 0 W/m² | - |
| 1777944768 | 24.44° C | 52% | 1052.7 hPa | 0 mm | - | 0 W/m² | - |
| 1777944467 | 25° C | 51% | 1052.5 hPa | 0 mm | - | 0 W/m² | - |
| 1777944164 | 25° C | 51% | 1052.7 hPa | 0 mm | - | 1 W/m² | - |
| 1777943859 | 25° C | 51% | 1052.4 hPa | 0 mm | - | 1 W/m² | - |
| 1777943557 | 25° C | 51% | 1052.4 hPa | 0 mm | - | 2 W/m² | - |
| 1777943252 | 25° C | 50% | 1052.4 hPa | 0 mm | - | 4 W/m² | - |
| 1777942948 | 25.56° C | 49% | 1052.4 hPa | 0 mm | - | 6 W/m² | - |
| 1777942645 | 25.56° C | 48% | 1052.3 hPa | 0 mm | - | 9 W/m² | - |
| 1777942342 | 25.56° C | 48% | 1052.2 hPa | 0 mm | - | 11 W/m² | - |
| 1777942039 | 25.56° C | 47% | 1052.3 hPa | 0 mm | - | 14 W/m² | - |
| 1777941736 | 26.11° C | 47% | 1052.1 hPa | 0 mm | - | 17 W/m² | - |
| 1777941433 | 26.11° C | 46% | 1051.8 hPa | 0 mm | - | 23 W/m² | - |
| 1777941131 | 26.11° C | 46% | 1051.9 hPa | 0 mm | - | 31 W/m² | - |
| 1777940827 | 26.11° C | 46% | 1052.1 hPa | 0 mm | - | 37 W/m² | - |
| 1777940525 | 26.67° C | 46% | 1052.3 hPa | 0 mm | - | 38 W/m² | - |
| 1777940221 | 26.67° C | 45% | 1052.2 hPa | 0 mm | - | 31 W/m² | - |
| 1777939919 | 26.67° C | 45% | 1052.3 hPa | 0 mm | - | 45 W/m² | - |
* Rain latest hour (hover to see other rain measurements)
** Current wind speed in m/s (hover to see current wind gust speed)